Погода в Нижнем

Россия / Краснодарский край     45°23′46″N   39°13′26″E
темп.,
°C
ветер,
м/с
пор.,
м/с
влажн.,
%
обл.,
%
осадки,
мм/ч
давл.,
гПа
погр.,
м
11 апреля, вс
вс1100:00+6юв1196100 3.0 102270
03:00+6с3695100 4.3 1020230
06:00+7ссв3794100 0.0 1020286
09:00+8св578795 0.0 1020531
12:00+10всв5679100 0.0 1019747
15:00+10всв4680100 0.0 1019673
18:00+10св3688100 0.0 1019375
21:00+9ссв3890100 0.0 1019282
12 апреля, пн
пн1200:00+9св2391100 0.0 1019101
03:00+9юз3794100 0.1 1019315
06:00+8юз4991100 0.0 1020364
09:00+9юз4888100 0.1 1021437
12:00+12з2371100 0.0 1021920
15:00+14зюз1368100 0.1 10211001
18:00+12зюз3479100 0.1 1021103
21:00+10зюз2284100 0.1 102240
13 апреля, вт
вт1300:00+10зюз2387100 0.0 102272
03:00+9зюз3586100 0.1 1022182
06:00+8з3690100 0.1 1022261
09:00+8з2393100 0.7 1023145
12:00+10зюз1183100 0.0 1023408
15:00+13юв117099 0.1 1022937
18:00+12с1179100 0.1 102116
21:00+10всв2289100 0.1 102114
14 апреля, ср
ср1400:00+8св229483 0.0 102014
03:00+9ссв2394100 0.3 1019108
06:00+9з2296100 0.4 101975
09:00+9зсз2394100 1.1 1019172
12:00+11зюз3386100 0.1 1019485
15:00+13зсз127468 0.1 1018593
18:00+14св11745 0.0 1018173
21:00+9всв229013 0.0 101711
15 апреля, чт
чт1500:00+8вюв33945 0.0 101739
03:00+7вюв22945 0.0 101727
06:00+7вюв3594100 0.0 101670
09:00+13в34745 0.0 1015394
12:00+18в335385 0.0 1014993
15:00+15юз111174100 0.6 1014717
18:00+13з128348 2.0 1015274
21:00+10в22930 2.0 101511